Saratoga Shively Field Airpor, WY

9:04 AM MST on January 18, 2018 (GMT -0700)
Shively

Weather History for KSAA - February, 2014

Change the Weather History Date:

Monday, February 10, 2014

  Actual Average Record
Temperature  
Mean Temperature 28 °F -  
Max Temperature 35 °F 37 °F 53 °F (2017)
Min Temperature 21 °F 12 °F 14 °F (2016)
Degree Days  
Heating Degree Days 37    
Moisture  
Dew Point 23 °F    
Average Humidity 74    
Maximum Humidity 86    
Minimum Humidity 60    
Precipitation  
Precipitation 0.00 in - - ()
Sea Level Pressure  
Sea Level Pressure 30.02 in    
Wind  
Wind Speed 10 mph (WSW)    
Max Wind Speed 20 mph    
Max Gust Speed 25 mph    
Visibility 10 miles    
Events      
Averages and records for this station are not official NWS values.
T = Trace of Precipitation, MM = Missing Value Source: NWS Daily Summary

Daily Weather History Graph

Daily Weather History Graph

Search for Another Location

Airport or City:

Trip Planner

Search our weather history database for the weather conditions in past years. The results will help you decide how hot, cold, wet, or windy it might be!

Date:

Astronomy

Feb. 10, 2014 Rise Set
Actual Time 7:08 AM MST 5:34 PM MST
Civil Twilight 6:40 AM MST 6:03 PM MST
Nautical Twilight 6:07 AM MST 6:36 PM MST
Astronomical Twilight 5:35 AM MST 7:08 PM MST
Moon 2:05 PM MST (2/10) 4:05 AM MST (2/10)
Length of Visible Light 11h 23m
Length of Day
10h 26m
Waxing Gibbous, 85% of the Moon is Illuminated
Feb 10
Waxing Gibbous
Feb 14
Full
Feb 22
Last Quarter
Mar 1
New
Mar 8
First Quarter

Hourly Weather History & Observations

Time (MST) Temp. Windchill Dew Point Humidity Pressure Visibility Wind Dir Wind Speed Gust Speed Precip Events Conditions
12:15 AM 28.4 °F 17.0 °F 21.2 °F 74% 29.96 in 10.0 mi WSW 15.0 mph 21.9 mph N/A   Clear
12:35 AM 30.2 °F 19.8 °F 21.2 °F 69% 29.96 in 10.0 mi SW 13.8 mph 19.6 mph N/A   Clear
12:55 AM 28.4 °F 20.4 °F 21.2 °F 74% 29.97 in 10.0 mi SW 8.1 mph - N/A   Mostly Cloudy
1:15 AM 28.4 °F 21.2 °F 23.0 °F 80% 29.97 in 10.0 mi WSW 6.9 mph - N/A   Overcast
1:35 AM 30.2 °F 26.7 °F 23.0 °F 75% 29.97 in 10.0 mi WSW 3.5 mph - N/A   Overcast
1:55 AM 30.2 °F 26.7 °F 23.0 °F 75% 29.98 in 10.0 mi West 3.5 mph - N/A   Overcast
2:15 AM 30.2 °F - 23.0 °F 75% 29.97 in 10.0 mi Calm Calm - N/A   Overcast
2:35 AM 30.2 °F 23.4 °F 24.8 °F 80% 29.98 in 10.0 mi WSW 6.9 mph - N/A   Overcast
2:58 AM 30.2 °F 22.6 °F 24.8 °F 80% 29.98 in 10.0 mi WSW 8.1 mph - N/A   Overcast
3:15 AM 30.2 °F 25.4 °F 24.8 °F 80% 29.97 in 10.0 mi West 4.6 mph - N/A   Overcast
3:35 AM 30.2 °F 26.7 °F 24.8 °F 80% 29.97 in 10.0 mi WSW 3.5 mph - N/A   Overcast
3:55 AM 30.2 °F 23.4 °F 23.0 °F 75% 29.97 in 10.0 mi SSW 6.9 mph - N/A   Overcast
4:15 AM 32.0 °F 23.0 °F 23.0 °F 69% 29.96 in 10.0 mi SW 11.5 mph - N/A   Overcast
4:35 AM 30.2 °F 20.8 °F 23.0 °F 75% 29.96 in 10.0 mi SW 11.5 mph - N/A   Overcast
4:55 AM 30.2 °F 21.9 °F 23.0 °F 75% 29.95 in 10.0 mi SW 9.2 mph - N/A   Overcast
5:15 AM 30.2 °F - 23.0 °F 75% 29.95 in 10.0 mi Calm Calm - N/A   Overcast
5:35 AM 30.2 °F - 23.0 °F 75% 29.95 in 10.0 mi Calm Calm - N/A   Overcast
5:55 AM 30.2 °F 25.4 °F 23.0 °F 75% 29.94 in 10.0 mi West 4.6 mph - N/A   Overcast
6:15 AM 32.0 °F 22.5 °F 23.0 °F 69% 29.94 in 10.0 mi West 12.7 mph 20.7 mph N/A   Overcast
6:35 AM 32.0 °F 23.6 °F 23.0 °F 69% 29.94 in 10.0 mi WSW 10.4 mph - N/A   Overcast
6:55 AM 32.0 °F 23.6 °F 23.0 °F 69% 29.94 in 10.0 mi West 10.4 mph - N/A   Overcast
7:15 AM 30.2 °F 26.7 °F 23.0 °F 75% 29.94 in 10.0 mi NW 3.5 mph 9.2 mph N/A   Overcast
7:35 AM 30.2 °F - 23.0 °F 75% 29.95 in 10.0 mi Calm Calm - N/A   Overcast
7:55 AM 30.2 °F 26.7 °F 23.0 °F 75% 29.96 in 10.0 mi NNW 3.5 mph - N/A   Overcast
8:15 AM 30.2 °F 26.7 °F 24.8 °F 80% 29.96 in 10.0 mi SSW 3.5 mph - N/A   Overcast
8:35 AM 30.2 °F - 24.8 °F 80% 29.97 in 10.0 mi Calm Calm - N/A   Overcast
8:55 AM 32.0 °F - 26.6 °F 80% 29.97 in 10.0 mi Calm Calm - N/A   Overcast
9:15 AM 32.0 °F - 26.6 °F 80% 29.98 in 10.0 mi Calm Calm - N/A   Overcast
9:35 AM 32.0 °F 24.8 °F 24.8 °F 75% 29.98 in 10.0 mi WSW 8.1 mph - N/A   Overcast
9:55 AM 32.0 °F 24.8 °F 26.6 °F 80% 29.98 in 10.0 mi West 8.1 mph - N/A   Overcast
10:15 AM 32.0 °F 23.6 °F 26.6 °F 80% 29.98 in 10.0 mi West 10.4 mph - N/A   Overcast
10:35 AM 32.0 °F 22.5 °F 24.8 °F 75% 29.99 in 10.0 mi West 12.7 mph - N/A   Mostly Cloudy
10:55 AM 32.0 °F 23.0 °F 26.6 °F 80% 30.00 in 10.0 mi West 11.5 mph - N/A   Scattered Clouds
11:15 AM 33.8 °F 23.9 °F 24.8 °F 70% 30.01 in 10.0 mi WSW 15.0 mph - N/A   Scattered Clouds
11:35 AM 33.8 °F 23.5 °F 24.8 °F 70% 30.00 in 10.0 mi WSW 16.1 mph 24.2 mph N/A   Clear
11:55 AM 33.8 °F 23.2 °F 24.8 °F 70% 30.01 in 10.0 mi West 17.3 mph 21.9 mph N/A   Clear
12:16 PM 33.8 °F 23.5 °F 24.8 °F 70% 30.01 in 10.0 mi WSW 16.1 mph 20.7 mph N/A   Scattered Clouds
12:35 PM 33.8 °F 23.2 °F 23.0 °F 65% 30.01 in 10.0 mi West 17.3 mph 20.7 mph N/A   Mostly Cloudy
12:55 PM 33.8 °F 23.9 °F 23.0 °F 65% 30.00 in 10.0 mi West 15.0 mph - N/A   Overcast
1:15 PM 35.6 °F 24.8 °F 23.0 °F 60% 30.00 in 10.0 mi West 19.6 mph 25.3 mph N/A   Overcast
1:35 PM 33.8 °F 23.5 °F 24.8 °F 70% 30.00 in 10.0 mi West 16.1 mph 24.2 mph N/A   Overcast
1:55 PM 32.0 °F 21.2 °F 23.0 °F 69% 30.00 in 10.0 mi West 16.1 mph 19.6 mph N/A   Mostly Cloudy
2:15 PM 33.8 °F 22.8 °F 21.2 °F 60% 30.00 in 10.0 mi West 18.4 mph 24.2 mph N/A   Scattered Clouds
2:35 PM 33.8 °F 22.5 °F 21.2 °F 60% 30.00 in 10.0 mi West 19.6 mph 24.2 mph N/A   Clear
2:55 PM 33.8 °F 23.5 °F 23.0 °F 65% 30.01 in 10.0 mi West 16.1 mph 24.2 mph N/A   Clear
3:15 PM 33.8 °F 22.5 °F 23.0 °F 65% 30.02 in 10.0 mi West 19.6 mph 24.2 mph N/A   Scattered Clouds
3:35 PM 33.8 °F 23.2 °F 23.0 °F 65% 30.03 in 10.0 mi West 17.3 mph 24.2 mph N/A   Mostly Cloudy
3:55 PM 32.0 °F 21.2 °F 21.2 °F 64% 30.04 in 10.0 mi West 16.1 mph - N/A   Scattered Clouds
4:15 PM 33.8 °F 23.2 °F 21.2 °F 60% 30.04 in 10.0 mi West 17.3 mph 21.9 mph N/A   Mostly Cloudy
4:35 PM 32.0 °F 20.8 °F 21.2 °F 64% 30.05 in 10.0 mi West 17.3 mph 21.9 mph N/A   Mostly Cloudy
4:55 PM 32.0 °F 23.6 °F 21.2 °F 64% 30.05 in 10.0 mi West 10.4 mph - N/A   Scattered Clouds
5:15 PM 30.2 °F 22.6 °F 21.2 °F 69% 30.05 in 10.0 mi WSW 8.1 mph - N/A   Clear
5:35 PM 30.2 °F 21.3 °F 21.2 °F 69% 30.06 in 10.0 mi West 10.4 mph - N/A   Mostly Cloudy
5:55 PM 30.2 °F 20.2 °F 23.0 °F 75% 30.06 in 10.0 mi West 12.7 mph - N/A   Scattered Clouds
6:15 PM 28.4 °F 19.7 °F 21.2 °F 74% 30.07 in 10.0 mi West 9.2 mph - N/A   Clear
6:35 PM 28.4 °F 22.2 °F 23.0 °F 80% 30.09 in 10.0 mi SW 5.8 mph - N/A   Mostly Cloudy
6:55 PM 28.4 °F 19.7 °F 23.0 °F 80% 30.09 in 10.0 mi SW 9.2 mph - N/A   Mostly Cloudy
7:15 PM 26.6 °F 18.2 °F 21.2 °F 80% 30.09 in 10.0 mi SSW 8.1 mph - N/A   Scattered Clouds
7:35 PM 26.6 °F 18.2 °F 19.4 °F 74% 30.09 in 10.0 mi WSW 8.1 mph - N/A   Clear
7:55 PM 26.6 °F 16.8 °F 21.2 °F 80% 30.09 in 10.0 mi SW 10.4 mph - N/A   Clear
8:15 PM 26.6 °F 16.8 °F 21.2 °F 80% 30.10 in 10.0 mi SSW 10.4 mph - N/A   Scattered Clouds
8:35 PM 26.6 °F 16.2 °F 19.4 °F 74% 30.10 in 10.0 mi SW 11.5 mph - N/A   Clear
8:55 PM 26.6 °F 16.2 °F 19.4 °F 74% 30.10 in 10.0 mi SW 11.5 mph - N/A   Clear
9:15 PM 26.6 °F 15.2 °F 21.2 °F 80% 30.11 in 10.0 mi SW 13.8 mph 20.7 mph N/A   Clear
9:35 PM 26.6 °F 16.2 °F 21.2 °F 80% 30.11 in 10.0 mi SSW 11.5 mph - N/A   Clear
9:55 PM 26.6 °F 15.7 °F 19.4 °F 74% 30.11 in 10.0 mi SW 12.7 mph - N/A   Clear
10:15 PM 26.6 °F 15.7 °F 19.4 °F 74% 30.11 in 10.0 mi SW 12.7 mph - N/A   Scattered Clouds
10:35 PM 24.8 °F 12.9 °F 19.4 °F 80% 30.11 in 10.0 mi WSW 13.8 mph - N/A   Scattered Clouds
10:56 PM 23.0 °F 11.1 °F 19.4 °F 86% 30.11 in 10.0 mi WSW 12.7 mph - N/A   Scattered Clouds
11:15 PM 23.0 °F 13.9 °F 17.6 °F 80% 30.12 in 10.0 mi SW 8.1 mph - N/A   Clear
11:35 PM 21.2 °F 10.1 °F 17.6 °F 86% 30.12 in 10.0 mi SSW 10.4 mph - N/A   Clear
11:55 PM 23.0 °F 11.7 °F 17.6 °F 80% 30.11 in 10.0 mi SW 11.5 mph - N/A   Clear